Location: Radomski Observatory
(40.2854°N, 79.5145°W)
Time: 10:45:42
(UTC-04:00)

Daily predictions for brighter satellites

Satellite Brightness Start Highest point End
(mag) Time Altitude Azimuth Time Altitude Azimuth Time Altitude Azimuth
Cosmos 2184 Rocket 4.4 19:29:23 10° SSE 19:35:14 42° E 19:41:09 10° NNE
SPOT 3 Rocket 3.7 19:32:39 10° SSE 19:37:48 85° WSW 19:43:00 10° NNW
Cosmos 1825 Rocket 4.2 19:33:35 10° NNW 19:37:57 62° W 19:42:21 10° S
Cosmos 1125 Rocket 4.3 19:35:21 10° N 19:40:07 33° ENE 19:44:51 10° SE
NOAA 12 4.1 19:36:30 10° SSE 19:41:43 74° ENE 19:46:59 10° N
Meteor 1-24 Rocket 4.1 19:36:02 10° N 19:41:43 45° ENE 19:47:12 10° SSE
Cosmos 1656 Rocket 3.7 19:40:33 10° NNW 19:46:14 83° ENE 19:51:46 10° SSE
Milstar 3 Cent rocket 3.9 19:42:22 10° SW 19:46:20 18° S 19:49:37 10° SE
Geosat 4.3 19:42:01 10° SE 19:46:49 48° ENE 19:51:39 10° NNW
ATLAS 2AS CENTAUR R/B 4.3 19:41:04 10° NNW 19:47:14 23° NNE 19:53:09 10° E
FENGYUN 3A 3.6 19:46:07 10° SSE 19:51:27 77° ENE 19:56:51 10° N
NOSS 3-1 (A) 4.1 19:49:59 10° NNW 19:57:42 80° NE 20:06:11 10° SE
Cosmos 841 Rocket 3.9 19:55:14 10° SSW 20:00:20 66° WNW 20:05:28 10° NNE
H-2A R/B 2.9 19:57:27 10° SSE 20:01:02 48° ENE 20:04:41 10° N
Cosmos 1544 3.2 19:58:07 10° SSE 20:01:34 46° E 20:05:03 10° NNE
SJ-6B 3.1 19:58:54 10° SE 20:02:43 45° ENE 20:06:27 10° N
NOSS 3-1 (C) 4.4 19:57:27 10° NW 20:05:09 75° WSW 20:13:37 10° SSE
BREEZE-M (TANK) 4.2 19:48:51 10° WNW 20:05:41 80° SW 20:09:26 13° SE
USA 81 4.3 20:01:37 10° N 20:06:54 73° W 20:12:08 10° S
COSMO-SKYMED 1 4.4 20:03:26 10° N 20:07:22 34° WNW 20:11:17 10° SW
Cosmos 1953 3.5 20:04:52 10° SE 20:08:00 22° E 20:11:09 10° NE
Cosmos 540 Rocket 3.3 20:04:21 10° S 20:09:25 74° ESE 20:14:32 10° NNE
Cosmos 292 Rocket 4.3 20:10:16 10° SSE 20:14:40 36° ESE 20:19:07 10° NE
SL-27 R/B 2.8 20:11:37 10° S 20:15:02 41° ESE 20:18:29 10° NNE
BREEZE-M DEB (TANK) 4.5 20:12:25 10° NW 20:16:13 38° NNE 20:25:06 15° E
BREEZE M DEB (TANK) 4.3 20:14:54 10° W 20:21:11 29° NNW 20:23:46 11° NE
COSMOS 2406 3.5 20:16:03 10° SSW 20:21:44 73° WNW 20:27:30 10° NNE
SJ 16-02 1.6 20:18:11 10° N 20:22:26 47° ENE 20:24:56 22° SE
In-Cosmos 22 4.2 20:16:48 10° N 20:22:33 83° E 20:28:19 10° S
HJ-1C 3.2 20:19:57 10° SSE 20:23:17 76° ENE 20:26:39 10° N
Cosmos 1356 Rocket 4.3 20:21:06 10° NNW 20:25:19 53° W 20:29:30 10° S
Cosmos 1674 3.5 20:22:22 10° NNE 20:25:41 29° ENE 20:25:44 29° ENE
Meteor 1-22 Rocket 4.4 20:20:08 10° SSW 20:25:49 76° W 20:31:19 10° N
Cosmos 1766 3.7 20:24:20 10° SSW 20:28:12 62° W 20:32:05 10° N
Cosmos 2369 4.5 20:27:24 10° N 20:32:28 32° ENE 20:34:09 27° E
Resurs 1-3 3.9 20:33:13 30° SE 20:34:55 45° ENE 20:39:07 10° N
ALOS 4.1 20:35:08 10° SSW 20:39:18 32° W 20:43:28 10° NNW
ISS -3.5 20:36:16 10° WSW 20:39:30 64° NW 20:40:34 37° NNE
Cosmos 2154 Rocket 3.9 20:34:31 10° S 20:40:42 75° E 20:46:59 10° N
MOS 1-B Rocket 4.0 20:37:07 19° SE 20:41:25 55° ENE 20:46:54 10° N
BREEZE-M DEB (TANK) 3.5 20:33:38 10° WSW 20:46:09 87° NNW 20:48:26 30° ENE
Meteor 1-21 Rocket 4.2 20:43:18 10° N 20:48:58 60° ENE 20:51:41 30° SSE
Elektron 1 3.7 20:49:38 10° NW 20:52:34 77° WNW 20:52:34 77° WNW
Spot 2 Rocket 3.4 20:50:59 34° SE 20:53:10 67° ENE 20:58:11 10° N
Cosmos 1758 3.3 20:49:30 10° S 20:53:30 84° W 20:57:31 10° N
Cosmos 1812 Rocket 4.2 20:50:59 10° SSW 20:55:22 57° W 20:59:48 10° N
Cosmos 2341 Rocket 3.9 20:49:48 10° S 20:55:56 70° E 21:02:08 10° NNE
Cosmos 2082 Rocket 4.2 20:53:07 10° S 21:03:56 - NE 20:53:28 12° S
Cosmos 1805 4.3 20:54:44 10° SSW 20:58:29 46° W 21:02:15 10° N
ATLAS 5 CENTAUR R/B 3.6 20:56:42 10° S 20:57:40 16° S 20:57:40 16° S
Resurs 01 Rocket 1.6 21:01:55 38° S 21:03:36 80° WSW 21:08:02 10° NNW
GP-B 3.3 21:00:06 10° N 21:04:32 68° W 21:08:54 10° SSW
CZ-2D R/B 3.9 21:04:04 30° SSW 21:05:37 52° W 21:09:22 10° NNW
Cosmos 2278 3.7 21:00:49 10° NNW 21:06:26 58° ENE 21:07:09 53° E
ATLAS CENTAUR R/B 4.4 20:56:35 10° NW 21:06:50 36° WSW 21:10:27 14° S
Nadezhda 3 Rocket 4.2 21:04:38 10° NNW 21:10:54 70° W 21:17:03 10° S
Cosmos 1939 Rocket 4.0 21:12:33 33° N 21:12:33 33° N 21:14:55 10° N
Cosmos 1656 3.7 21:10:31 10° NNW 21:16:06 57° ENE 21:16:07 57° ENE
Cosmos 2218 Rocket 4.1 21:20:07 54° ENE 21:20:07 54° ENE 21:25:40 10° NNE
Cosmos 2285 Rocket 3.9 21:16:42 10° SSW 21:23:07 88° ESE 21:29:37 10° NNE
Cosmos 1697 Rocket 3.2 21:18:15 10° NNW 21:22:56 43° NE 21:22:56 43° NE
Cosmos 1809 Rocket 4.3 21:18:20 12° S 21:24:03 85° E 21:30:12 10° N
Envisat 3.3 21:24:14 43° SSW 21:25:45 64° W 21:30:49 10° NNW
Cosmos 1980 Rocket 3.5 21:21:06 10° N 21:24:38 26° NNE 21:24:38 26° NNE
Cosmos 1295 Rocket 4.5 21:21:08 10° SSW 21:27:14 76° W 21:33:20 10° N
Okean 3 Rocket 4.0 21:25:02 10° NNW 21:29:16 59° W 21:29:16 59° W
Meteor 2-15 4.3 21:33:05 10° N 21:39:10 85° W 21:39:39 76° SSW
ATLAS 2AS CENTAUR R/B 2.8 21:31:41 10° NNW 21:39:42 75° NE 21:40:35 68° ESE
SL-8 Rocket 3.9 21:38:36 55° SSW 21:40:04 84° W 21:46:16 10° N
Meteor 2-14 Rocket 4.3 21:43:34 80° NNE 21:43:34 80° NNE 21:49:22 10° N
Cosmos 1727 Rocket 4.4 21:39:50 10° N 21:44:38 49° NNE 21:44:38 49° NNE
Meteor 2-21 Rocket 4.4 21:50:34 77° WSW 21:50:44 78° W 21:56:54 10° N
H-2A R/B 4.3 21:57:09 15° NNE 21:57:09 15° NNE 21:58:05 10° N
SL-16 R/B 4.3 21:51:34 10° N 21:53:07 15° NNE 21:53:07 15° NNE
SJ 16-02 4.0 21:58:14 10° WNW 22:00:34 14° W 22:02:00 12° WSW
Cosmos 2082 Rocket 4.4 22:45:39 18° N 22:45:39 18° N 22:47:24 10° N
